{"data":{"norad_id":38077,"epoch":"2026-05-25T00:26:35.877120Z","epoch_age_seconds":70672,"freshness":"FRESH","line1":"1 38077U 12006A   26145.01847080 -.00000038  00000+0  49683-5 0  9996","line2":"2 38077  69.4904 331.8211 0006716  54.2399 305.9252 12.54932092654165","mean_motion":12.54932092,"eccentricity":0.0006716,"inclination_deg":69.4904,"raan_deg":331.8211,"arg_perigee_deg":54.2399,"mean_anomaly_deg":305.9252,"bstar":4.9683e-6,"rev_number":65416,"period_min":114.74724482542,"perigee_km":1438.6795685969,"apogee_km":1449.1861728472,"semimajor_km":7822.0698707221,"source":"CELESTRAK","updated_at":"2026-05-25T13:38:24.774115Z"}}